Terug naar catalogus

COSMOS 468 DEB

ActiefLEO
NORAD 37887·DEBRIS·🇷🇺 Russia

Gelanceerd Dec 17, 1971 vanaf Plesetsk Cosmodrome

Loading…

Volgende Passages (komende 24 uur)

TLE

VerouderendSource: Space-Track

Epoch: Sep 9, 2026, 20:55 UTC

1 37887U 71114F   26252.87220251  .00000208  00000-0  70661-4 0  9995
2 37887  74.0162 300.5744 0014705 310.3962  49.5910 14.42661886269684

Volg COSMOS 468 DEB in realtime met AllMySat

Download on the App Store